Location: Oklahoma City
(35.4680°N, 97.5160°W)
Time: 19:05:57
(UTC-05:00)

ISS - Visible Passes

Search period start: 27 May 2016 00:00
Search period end: 06 June 2016 00:00
Orbit: 402 x 404 km, 51.6° (Epoch: 27 May)

Date Brightness Start Highest point End Pass type
(mag) Time Alt. Az. Time Alt. Az. Time Alt. Az.
27 May -0.5 04:32:21 10° NNW 04:34:56 21° NNE 04:37:30 10° E visible
27 May -2.4 21:09:35 10° SSW 21:12:24 27° SE 21:15:14 10° ENE visible
27 May -0.9 22:46:04 10° W 22:48:49 25° NNW 22:51:35 10° NNE visible
28 May 0.1 03:40:15 10° N 03:41:58 13° NNE 03:43:40 10° ENE visible
28 May -3.5 05:15:31 10° NW 05:18:46 80° SW 05:22:01 10° SE visible
28 May -2.2 21:52:49 10° WSW 21:55:57 46° NW 21:59:07 10° NE visible
29 May -2.2 04:22:51 10° NW 04:26:01 46° NE 04:29:09 10° ESE visible
29 May 0.1 22:38:17 10° WNW 22:40:01 13° NNW 22:41:43 10° N visible
30 May -1.0 03:30:24 10° NNW 03:33:09 25° NNE 03:35:54 10° E visible
30 May -2.4 05:06:44 10° WNW 05:09:34 27° SW 05:12:23 10° SSE visible
30 May -0.5 21:44:26 10° W 21:47:01 21° NNW 21:49:37 10° NNE visible
31 May 0.1 02:38:10 10° N 02:38:26 11° N 02:38:26 11° N visible
01 Jun 0.0 21:36:53 10° NW 21:38:14 12° NNW 21:39:34 10° N visible
04 Jun 0.3 00:44:13 10° N 00:44:20 10° N 00:44:20 10° N visible
